Вернуться в каталог

ONEWEB-0563

АктивенСвязьPO
NORAD 55800·PAYLOAD·🇬🇧 United Kingdom

Запущен Mar 9, 2023 с Cape Canaveral Space Force Station

Loading…

Ближайшие Пролёты (ближайшие 24 часа)

TLE

СвежийSource: CelesTrak SupGP

Эпоха: Sep 14, 2026, 22:07 UTC

1 55800C 23029E   26257.92170556  .00003361  00000+0  82767-2 0  2572
2 55800  87.9132 256.5716 0002072  83.3031 313.9471 13.20767596    16

Отслеживайте ONEWEB-0563 в реальном времени с AllMySat

Download on the App Store